Time,TemperatureF,DewpointF,PressureIn,WindDirection,WindDirectionDegrees,WindSpeedMPH,WindSpeedGustMPH,Humidity,HourlyPrecipIn,Conditions,Clouds,dailyrainin,SolarRadiationWatts/m^2,SoftwareType,DateUTC
2013-02-11 00:41:00,21.0,15.0,-100.00,NE,37,13.0,16.0,76,-99.99,,,-99.99,0.150000,,2013-02-11 07:41:00,
2013-02-11 00:51:00,21.0,15.0,-100.00,NNE,29,11.0,14.0,76,-99.99,,,-99.99,0.150000,,2013-02-11 07:51:00,
2013-02-11 01:11:00,20.0,14.0,-100.00,NNE,15,9.0,11.0,77,-99.99,,,-99.99,0.160000,,2013-02-11 08:11:00,
2013-02-11 01:31:00,18.0,12.0,-100.00,NNW,336,8.0,9.0,78,-99.99,,,-99.99,0.200000,,2013-02-11 08:31:00,
2013-02-11 01:51:00,17.0,12.0,-100.00,NNW,335,10.0,12.0,81,-99.99,,,-99.99,0.140000,,2013-02-11 08:51:00,
2013-02-11 02:12:00,17.0,13.0,-100.00,NNW,344,11.0,12.0,84,-99.99,,,-99.99,0.200000,,2013-02-11 09:12:00,
2013-02-11 02:31:00,17.0,13.0,-100.00,NNW,344,8.0,11.0,85,-99.99,,,-99.99,0.180000,,2013-02-11 09:31:00,
2013-02-11 02:51:00,17.0,13.0,-100.00,NNW,342,7.0,10.0,84,-99.99,,,-99.99,0.200000,,2013-02-11 09:51:00,
2013-02-11 03:11:00,18.0,13.0,-100.00,NNE,20,10.0,11.0,79,-99.99,,,-99.99,0.190000,,2013-02-11 10:11:00,
2013-02-11 03:31:00,17.0,12.0,-100.00,NNW,346,6.0,11.0,79,-99.99,,,-99.99,0.070000,,2013-02-11 10:31:00,
2013-02-11 03:41:00,17.0,12.0,-100.00,NNW,346,6.0,11.0,79,-99.99,,,-99.99,0.070000,,2013-02-11 10:41:00,
2013-02-11 04:52:00,14.0,9.0,-100.00,NNW,327,11.0,13.0,80,-99.99,,,-99.99,0.000000,,2013-02-11 11:52:00,
2013-02-11 05:12:00,13.0,8.0,-100.00,NNW,338,11.0,14.0,78,-99.99,,,-99.99,0.000000,,2013-02-11 12:12:00,
2013-02-11 05:22:00,13.0,8.0,-100.00,NNW,338,11.0,14.0,78,-99.99,,,-99.99,0.000000,,2013-02-11 12:22:00,
2013-02-11 05:31:00,13.0,8.0,-100.00,NNW,338,10.0,14.0,77,-99.99,,,-99.99,0.000000,,2013-02-11 12:31:00,
2013-02-11 05:52:00,13.0,8.0,-100.00,NNW,332,11.0,13.0,79,-99.99,,,-99.99,0.050000,,2013-02-11 12:52:00,
2013-02-11 06:11:00,13.0,8.0,-100.00,NNW,346,11.0,15.0,79,-99.99,,,-99.99,0.000000,,2013-02-11 13:11:00,
2013-02-11 06:21:00,13.0,8.0,-100.00,NNW,346,11.0,15.0,79,-99.99,,,-99.99,0.000000,,2013-02-11 13:21:00,
2013-02-11 06:32:00,14.0,9.0,-100.00,North,356,11.0,13.0,78,-99.99,,,-99.99,0.000000,,2013-02-11 13:32:00,
2013-02-11 06:41:00,14.0,9.0,-100.00,North,356,11.0,13.0,78,-99.99,,,-99.99,0.000000,,2013-02-11 13:41:00,
2013-02-11 06:51:00,13.0,7.0,-100.00,NNW,330,9.0,12.0,76,-99.99,,,-99.99,0.000000,,2013-02-11 13:51:00,
2013-02-11 07:11:00,12.0,7.0,-100.00,NNW,339,8.0,11.0,79,-99.99,,,-99.99,0.000000,,2013-02-11 14:11:00,
2013-02-11 07:21:00,12.0,7.0,-100.00,NNW,339,8.0,11.0,79,-99.99,,,-99.99,0.000000,,2013-02-11 14:21:00,
2013-02-11 07:32:00,13.0,7.0,-100.00,NNW,342,10.0,12.0,78,-99.99,,,-99.99,0.340000,,2013-02-11 14:32:00,
2013-02-11 08:11:00,11.0,5.0,-100.00,NNW,328,13.0,14.0,77,-99.99,,,-99.99,23.139999,,2013-02-11 15:11:00,
2013-02-11 08:21:00,11.0,5.0,-100.00,NNW,328,13.0,14.0,77,-99.99,,,-99.99,23.139999,,2013-02-11 15:21:00,
2013-02-11 08:42:00,11.0,6.0,-100.00,NNW,327,11.0,15.0,77,-99.99,,,-99.99,38.410000,,2013-02-11 15:42:00,
2013-02-11 09:11:00,13.0,6.0,-100.00,NNW,330,12.0,13.0,73,-99.99,,,-99.99,272.799988,,2013-02-11 16:11:00,
2013-02-11 09:21:00,13.0,6.0,-100.00,NNW,330,12.0,13.0,73,-99.99,,,-99.99,272.799988,,2013-02-11 16:21:00,
2013-02-11 09:42:00,14.0,6.0,-100.00,North,352,10.0,14.0,72,-99.99,,,-99.99,355.000000,,2013-02-11 16:42:00,
2013-02-11 09:51:00,15.0,7.0,-100.00,NNW,348,10.0,13.0,69,-99.99,,,-99.99,370.600006,,2013-02-11 16:51:00,
2013-02-11 10:01:00,15.0,7.0,-100.00,NNW,348,10.0,13.0,69,-99.99,,,-99.99,370.600006,,2013-02-11 17:01:00,
2013-02-11 10:11:00,16.0,7.0,-100.00,North,349,10.0,11.0,66,-99.99,,,-99.99,431.500000,,2013-02-11 17:11:00,
2013-02-11 10:31:00,17.0,8.0,-100.00,North,351,9.0,11.0,66,-99.99,,,-99.99,515.799988,,2013-02-11 17:31:00,
2013-02-11 10:41:00,17.0,8.0,-100.00,North,351,9.0,11.0,66,-99.99,,,-99.99,515.799988,,2013-02-11 17:41:00,
2013-02-11 10:52:00,18.0,8.0,-100.00,North,351,9.0,10.0,63,-99.99,,,-99.99,548.299988,,2013-02-11 17:52:00,
2013-02-11 11:01:00,18.0,8.0,-100.00,North,351,9.0,10.0,63,-99.99,,,-99.99,548.299988,,2013-02-11 18:01:00,
2013-02-11 11:21:00,19.0,9.0,-100.00,North,4,9.0,11.0,64,-99.99,,,-99.99,590.900024,,2013-02-11 18:21:00,
2013-02-11 11:41:00,20.0,8.0,-100.00,North,8,5.0,8.0,59,-99.99,,,-99.99,630.799988,,2013-02-11 18:41:00,
2013-02-11 12:11:00,21.0,10.0,-100.00,North,358,2.0,5.0,62,-99.99,,,-99.99,651.000000,,2013-02-11 19:11:00,
2013-02-11 13:01:00,24.0,13.0,-100.00,South,190,5.0,7.0,61,-99.99,,,-99.99,693.200012,,2013-02-11 20:01:00,
2013-02-11 13:11:00,23.0,12.0,-100.00,SW,214,5.0,6.0,60,-99.99,,,-99.99,686.200012,,2013-02-11 20:11:00,
2013-02-11 13:52:00,26.0,12.0,-100.00,South,186,3.0,6.0,56,-99.99,,,-99.99,683.299988,,2013-02-11 20:52:00,
2013-02-11 14:02:00,26.0,12.0,-100.00,South,186,3.0,6.0,56,-99.99,,,-99.99,683.299988,,2013-02-11 21:02:00,
2013-02-11 14:11:00,26.0,12.0,-100.00,South,176,6.0,8.0,54,-99.99,,,-99.99,529.099976,,2013-02-11 21:11:00,
2013-02-11 14:31:00,26.0,12.0,-100.00,SSW,193,4.0,7.0,54,-99.99,,,-99.99,358.100006,,2013-02-11 21:31:00,
2013-02-11 14:51:00,28.0,15.0,-100.00,SSE,167,5.0,7.0,55,-99.99,,,-99.99,567.099976,,2013-02-11 21:51:00,
2013-02-11 15:11:00,28.0,14.0,-100.00,South,181,7.0,8.0,53,-99.99,,,-99.99,545.900024,,2013-02-11 22:11:00,
2013-02-11 16:52:00,28.0,14.0,-100.00,South,185,4.0,6.0,55,-99.99,,,-99.99,210.100006,,2013-02-11 23:52:00,
2013-02-11 17:01:00,28.0,14.0,-100.00,South,185,4.0,6.0,55,-99.99,,,-99.99,210.100006,,2013-02-12 00:01:00,
2013-02-11 17:11:00,26.0,15.0,-100.00,SSE,153,6.0,8.0,63,-99.99,,,-99.99,171.600006,,2013-02-12 00:11:00,
2013-02-11 17:31:00,27.0,16.0,-100.00,South,181,5.0,5.0,64,-99.99,,,-99.99,127.800003,,2013-02-12 00:31:00,
2013-02-11 17:41:00,27.0,16.0,-100.00,South,181,5.0,5.0,64,-99.99,,,-99.99,127.800003,,2013-02-12 00:41:00,
2013-02-11 17:51:00,24.0,16.0,-100.00,South,170,3.0,5.0,70,-99.99,,,-99.99,19.900000,,2013-02-12 00:51:00,
2013-02-11 18:11:00,22.0,15.0,-100.00,WNW,301,4.0,4.0,74,-99.99,,,-99.99,7.370000,,2013-02-12 01:11:00,
2013-02-11 19:01:00,17.0,7.0,-100.00,WNW,301,2.0,4.0,64,-99.99,,,-99.99,0.060000,,2013-02-12 02:01:00,
2013-02-11 19:11:00,15.0,5.0,-100.00,West,279,1.0,3.0,62,-99.99,,,-99.99,0.180000,,2013-02-12 02:11:00,
2013-02-11 19:21:00,15.0,5.0,-100.00,West,279,1.0,3.0,62,-99.99,,,-99.99,0.180000,,2013-02-12 02:21:00,
2013-02-11 19:31:00,17.0,5.0,-100.00,NW,312,5.0,6.0,58,-99.99,,,-99.99,0.110000,,2013-02-12 02:31:00,
2013-02-11 20:01:00,15.0,6.0,-100.00,NNW,335,3.0,4.0,66,-99.99,,,-99.99,0.000000,,2013-02-12 03:01:00,
2013-02-11 20:21:00,13.0,4.0,-100.00,NNW,327,5.0,5.0,65,-99.99,,,-99.99,0.000000,,2013-02-12 03:21:00,
2013-02-11 20:31:00,13.0,4.0,-100.00,NNW,327,5.0,5.0,65,-99.99,,,-99.99,0.000000,,2013-02-12 03:31:00,
2013-02-11 20:41:00,14.0,6.0,-100.00,NNE,18,10.0,10.0,68,-99.99,,,-99.99,0.000000,,2013-02-12 03:41:00,
2013-02-11 20:51:00,14.0,6.0,-100.00,NNE,13,8.0,8.0,71,-99.99,,,-99.99,0.000000,,2013-02-12 03:51:00,
2013-02-11 21:01:00,14.0,6.0,-100.00,NNE,13,8.0,8.0,71,-99.99,,,-99.99,0.000000,,2013-02-12 04:01:00,
2013-02-11 21:11:00,14.0,6.0,-100.00,NNE,13,8.0,8.0,71,-99.99,,,-99.99,0.000000,,2013-02-12 04:11:00,
2013-02-11 21:21:00,14.0,6.0,-100.00,NNE,13,8.0,8.0,71,-99.99,,,-99.99,0.000000,,2013-02-12 04:21:00,
2013-02-11 21:41:00,16.0,7.0,-100.00,NNE,13,10.0,13.0,66,-99.99,,,-99.99,0.000000,,2013-02-12 04:41:00,
2013-02-11 21:51:00,15.0,7.0,-100.00,North,3,12.0,12.0,69,-99.99,,,-99.99,0.000000,,2013-02-12 04:51:00,
2013-02-11 22:11:00,14.0,6.0,-100.00,SE,132,5.0,5.0,71,-99.99,,,-99.99,0.000000,,2013-02-12 05:11:00,
2013-02-11 22:52:00,11.0,4.0,-100.00,NNE,22,5.0,6.0,72,-99.99,,,-99.99,0.000000,,2013-02-12 05:52:00,
2013-02-11 23:12:00,10.0,3.0,-100.00,NNE,20,10.0,11.0,73,-99.99,,,-99.99,0.000000,,2013-02-12 06:12:00,
2013-02-11 23:31:00,10.0,3.0,-100.00,NNE,25,11.0,12.0,74,-99.99,,,-99.99,0.000000,,2013-02-12 06:31:00,
2013-02-11 23:51:00,9.0,3.0,-100.00,North,7,11.0,11.0,75,-99.99,,,-99.99,0.000000,,2013-02-12 06:51:00,